owner,sensor,date,latitude,longitude,vertical_datum,mass_concentration_of_oxygen_in_sea_water,qcFlag 
SCCF RECON,ioos:station:SCCF:12:1,2011-10-01T00:00:00Z,26.4966,-82.1479,2.125,-9999.0,1111122 
SCCF RECON,ioos:station:SCCF:12:1,2011-10-01T01:00:00Z,26.4966,-82.1479,2.093,-9999.0,1111122 
SCCF RECON,ioos:station:SCCF:12:1,2011-10-01T02:00:00Z,26.4966,-82.1479,2.104,-9999.0,1111122 
SCCF RECON,ioos:station:SCCF:12:1,2011-10-01T03:00:00Z,26.4966,-82.1479,2.142,-9999.0,1111122 
SCCF RECON,ioos:station:SCCF:12:1,2011-10-01T04:00:00Z,26.4966,-82.1479,2.222,-9999.0,1111122 
SCCF RECON,ioos:station:SCCF:12:1,2011-10-01T05:00:00Z,26.4966,-82.1479,2.36,-9999.0,1111122 
SCCF RECON,ioos:station:SCCF:12:1,2011-10-01T06:00:00Z,26.4966,-82.1479,2.485,-9999.0,1111122 
SCCF RECON,ioos:station:SCCF:12:1,2011-10-01T07:00:00Z,26.4966,-82.1479,2.558,-9999.0,1111122 
SCCF RECON,ioos:station:SCCF:12:1,2011-10-01T08:00:00Z,26.4966,-82.1479,2.543,-9999.0,1111122 
SCCF RECON,ioos:station:SCCF:12:1,2011-10-01T09:00:00Z,26.4966,-82.1479,2.453,-9999.0,1111122 
SCCF RECON,ioos:station:SCCF:12:1,2011-10-01T10:00:00Z,26.4966,-82.1479,2.333,-9999.0,1111122 
SCCF RECON,ioos:station:SCCF:12:1,2011-10-01T11:00:00Z,26.4966,-82.1479,2.185,-9999.0,1111122 
SCCF RECON,ioos:station:SCCF:12:1,2011-10-01T12:00:00Z,26.4966,-82.1479,2.049,-9999.0,1111122 
SCCF RECON,ioos:station:SCCF:12:1,2011-10-01T13:00:00Z,26.4966,-82.1479,1.928,-9999.0,1111122 
SCCF RECON,ioos:station:SCCF:12:1,2011-10-01T14:00:00Z,26.4966,-82.1479,1.831,-9999.0,1111122 
SCCF RECON,ioos:station:SCCF:12:1,2011-10-01T15:00:00Z,26.4966,-82.1479,1.733,-9999.0,1111122 
SCCF RECON,ioos:station:SCCF:12:1,2011-10-01T16:00:00Z,26.4966,-82.1479,1.702,-9999.0,1111122 
SCCF RECON,ioos:station:SCCF:12:1,2011-10-01T17:00:00Z,26.4966,-82.1479,1.821,-9999.0,1111122 
SCCF RECON,ioos:station:SCCF:12:1,2011-10-01T18:00:00Z,26.4966,-82.1479,1.985,-9999.0,1111122 
SCCF RECON,ioos:station:SCCF:12:1,2011-10-01T19:00:00Z,26.4966,-82.1479,2.1,-9999.0,1111122 
SCCF RECON,ioos:station:SCCF:12:1,2011-10-01T20:00:00Z,26.4966,-82.1479,2.174,-9999.0,1111122 
SCCF RECON,ioos:station:SCCF:12:1,2011-10-01T21:00:00Z,26.4966,-82.1479,2.235,-9999.0,1111122 
SCCF RECON,ioos:station:SCCF:12:1,2011-10-01T22:00:00Z,26.4966,-82.1479,2.28,-9999.0,1111122 
SCCF RECON,ioos:station:SCCF:12:1,2011-10-01T23:00:00Z,26.4966,-82.1479,2.281,-9999.0,1111122 
SCCF RECON,ioos:station:SCCF:12:1,2011-10-02T00:00:00Z,26.4966,-82.1479,2.252,-9999.0,1111122 
SCCF RECON,ioos:station:SCCF:12:1,2011-10-02T01:00:00Z,26.4966,-82.1479,2.221,-9999.0,1111122 
SCCF RECON,ioos:station:SCCF:12:1,2011-10-02T02:00:00Z,26.4966,-82.1479,2.194,-9999.0,1111122 
SCCF RECON,ioos:station:SCCF:12:1,2011-10-02T03:00:00Z,26.4966,-82.1479,2.166,-9999.0,1111122 
SCCF RECON,ioos:station:SCCF:12:1,2011-10-02T04:00:00Z,26.4966,-82.1479,2.18,-9999.0,1111122 
SCCF RECON,ioos:station:SCCF:12:1,2011-10-02T05:00:00Z,26.4966,-82.1479,2.241,-9999.0,1111122 
SCCF RECON,ioos:station:SCCF:12:1,2011-10-02T06:00:00Z,26.4966,-82.1479,2.325,-9999.0,1111122 
SCCF RECON,ioos:station:SCCF:12:1,2011-10-02T07:00:00Z,26.4966,-82.1479,2.402,-9999.0,1111122 
SCCF RECON,ioos:station:SCCF:12:1,2011-10-02T08:00:00Z,26.4966,-82.1479,2.44,-9999.0,1111122 
SCCF RECON,ioos:station:SCCF:12:1,2011-10-02T09:00:00Z,26.4966,-82.1479,2.433,-9999.0,1111122 
SCCF RECON,ioos:station:SCCF:12:1,2011-10-02T10:00:00Z,26.4966,-82.1479,2.376,-9999.0,1111122 
SCCF RECON,ioos:station:SCCF:12:1,2011-10-02T11:00:00Z,26.4966,-82.1479,2.279,-9999.0,1111122 
SCCF RECON,ioos:station:SCCF:12:1,2011-10-02T12:00:00Z,26.4966,-82.1479,2.155,-9999.0,1111122 
SCCF RECON,ioos:station:SCCF:12:1,2011-10-02T13:00:00Z,26.4966,-82.1479,2.044,-9999.0,1111122 
SCCF RECON,ioos:station:SCCF:12:1,2011-10-02T14:00:00Z,26.4966,-82.1479,1.927,-9999.0,1111122 
SCCF RECON,ioos:station:SCCF:12:1,2011-10-02T15:00:00Z,26.4966,-82.1479,1.822,-9999.0,1111122 
SCCF RECON,ioos:station:SCCF:12:1,2011-10-02T16:00:00Z,26.4966,-82.1479,1.741,-9999.0,1111122 
SCCF RECON,ioos:station:SCCF:12:1,2011-10-02T17:00:00Z,26.4966,-82.1479,1.728,-9999.0,1111122 
SCCF RECON,ioos:station:SCCF:12:1,2011-10-02T18:00:00Z,26.4966,-82.1479,1.848,-9999.0,1111122 
SCCF RECON,ioos:station:SCCF:12:1,2011-10-02T19:00:00Z,26.4966,-82.1479,1.976,-9999.0,1111122 
SCCF RECON,ioos:station:SCCF:12:1,2011-10-02T20:00:00Z,26.4966,-82.1479,2.058,-9999.0,1111122 
SCCF RECON,ioos:station:SCCF:12:1,2011-10-02T21:00:00Z,26.4966,-82.1479,2.124,-9999.0,1111122 
SCCF RECON,ioos:station:SCCF:12:1,2011-10-02T22:00:00Z,26.4966,-82.1479,2.181,-9999.0,1111122 
SCCF RECON,ioos:station:SCCF:12:1,2011-10-02T23:00:00Z,26.4966,-82.1479,2.233,-9999.0,1111122 
SCCF RECON,ioos:station:SCCF:12:1,2011-10-03T00:00:00Z,26.4966,-82.1479,2.255,-9999.0,1111122 
SCCF RECON,ioos:station:SCCF:12:1,2011-10-03T01:00:00Z,26.4966,-82.1479,2.243,-9999.0,1111122 
SCCF RECON,ioos:station:SCCF:12:1,2011-10-03T02:00:00Z,26.4966,-82.1479,2.216,-9999.0,1111122 
SCCF RECON,ioos:station:SCCF:12:1,2011-10-03T03:00:00Z,26.4966,-82.1479,2.2,-9999.0,1111122 
SCCF RECON,ioos:station:SCCF:12:1,2011-10-03T04:00:00Z,26.4966,-82.1479,2.211,-9999.0,1111122 
SCCF RECON,ioos:station:SCCF:12:1,2011-10-03T05:00:00Z,26.4966,-82.1479,2.243,-9999.0,1111122 
SCCF RECON,ioos:station:SCCF:12:1,2011-10-03T06:00:00Z,26.4966,-82.1479,2.285,-9999.0,1111122 
SCCF RECON,ioos:station:SCCF:12:1,2011-10-03T07:00:00Z,26.4966,-82.1479,2.347,-9999.0,1111122 
SCCF RECON,ioos:station:SCCF:12:1,2011-10-03T08:00:00Z,26.4966,-82.1479,2.411,-9999.0,1111122 
SCCF RECON,ioos:station:SCCF:12:1,2011-10-03T09:00:00Z,26.4966,-82.1479,2.45,-9999.0,1111122 
SCCF RECON,ioos:station:SCCF:12:1,2011-10-03T10:00:00Z,26.4966,-82.1479,2.432,-9999.0,1111122 
SCCF RECON,ioos:station:SCCF:12:1,2011-10-03T11:00:00Z,26.4966,-82.1479,2.369,-9999.0,1111122 
SCCF RECON,ioos:station:SCCF:12:1,2011-10-03T12:00:00Z,26.4966,-82.1479,2.282,-9999.0,1111122 
SCCF RECON,ioos:station:SCCF:12:1,2011-10-03T13:00:00Z,26.4966,-82.1479,2.185,-9999.0,1111122 
SCCF RECON,ioos:station:SCCF:12:1,2011-10-03T14:00:00Z,26.4966,-82.1479,2.069,-9999.0,1111122 
SCCF RECON,ioos:station:SCCF:12:1,2011-10-03T15:00:00Z,26.4966,-82.1479,1.96,-9999.0,1111122 
SCCF RECON,ioos:station:SCCF:12:1,2011-10-03T16:00:00Z,26.4966,-82.1479,1.853,-9999.0,1111122 
SCCF RECON,ioos:station:SCCF:12:1,2011-10-03T17:00:00Z,26.4966,-82.1479,1.77,-9999.0,1111122 
SCCF RECON,ioos:station:SCCF:12:1,2011-10-03T18:00:00Z,26.4966,-82.1479,1.74,-9999.0,1111122 
SCCF RECON,ioos:station:SCCF:12:1,2011-10-03T19:00:00Z,26.4966,-82.1479,1.83,-9999.0,1111122 
SCCF RECON,ioos:station:SCCF:12:1,2011-10-03T20:00:00Z,26.4966,-82.1479,1.94,-9999.0,1111122 
SCCF RECON,ioos:station:SCCF:12:1,2011-10-03T21:00:00Z,26.4966,-82.1479,2.04,-9999.0,1111122 
SCCF RECON,ioos:station:SCCF:12:1,2011-10-03T22:00:00Z,26.4966,-82.1479,2.111,-9999.0,1111122 
SCCF RECON,ioos:station:SCCF:12:1,2011-10-03T23:00:00Z,26.4966,-82.1479,2.158,-9999.0,1111122 
SCCF RECON,ioos:station:SCCF:12:1,2011-10-04T00:00:00Z,26.4966,-82.1479,2.2,-9999.0,1111122 
SCCF RECON,ioos:station:SCCF:12:1,2011-10-04T01:00:00Z,26.4966,-82.1479,2.25,-9999.0,1111122 
SCCF RECON,ioos:station:SCCF:12:1,2011-10-04T02:00:00Z,26.4966,-82.1479,2.26,-9999.0,1111122 
SCCF RECON,ioos:station:SCCF:12:1,2011-10-04T03:00:00Z,26.4966,-82.1479,2.26,-9999.0,1111122 
SCCF RECON,ioos:station:SCCF:12:1,2011-10-04T04:00:00Z,26.4966,-82.1479,2.281,-9999.0,1111122 
SCCF RECON,ioos:station:SCCF:12:1,2011-10-04T05:00:00Z,26.4966,-82.1479,2.296,-9999.0,1111122 
SCCF RECON,ioos:station:SCCF:12:1,2011-10-04T06:00:00Z,26.4966,-82.1479,2.263,-9999.0,1111122 
SCCF RECON,ioos:station:SCCF:12:1,2011-10-04T07:00:00Z,26.4966,-82.1479,2.249,-9999.0,1111122 
SCCF RECON,ioos:station:SCCF:12:1,2011-10-04T08:00:00Z,26.4966,-82.1479,2.29,-9999.0,1111122 
SCCF RECON,ioos:station:SCCF:12:1,2011-10-04T09:00:00Z,26.4966,-82.1479,2.383,-9999.0,1111122 
SCCF RECON,ioos:station:SCCF:12:1,2011-10-04T10:00:00Z,26.4966,-82.1479,2.43,-9999.0,1111122 
SCCF RECON,ioos:station:SCCF:12:1,2011-10-04T11:00:00Z,26.4966,-82.1479,2.426,-9999.0,1111122 
SCCF RECON,ioos:station:SCCF:12:1,2011-10-04T12:00:00Z,26.4966,-82.1479,2.39,-9999.0,1111122 
SCCF RECON,ioos:station:SCCF:12:1,2011-10-04T13:00:00Z,26.4966,-82.1479,2.349,-9999.0,1111122 
SCCF RECON,ioos:station:SCCF:12:1,2011-10-04T14:00:00Z,26.4966,-82.1479,2.25,-9999.0,1111122 
SCCF RECON,ioos:station:SCCF:12:1,2011-10-04T15:00:00Z,26.4966,-82.1479,2.135,-9999.0,1111122 
SCCF RECON,ioos:station:SCCF:12:1,2011-10-04T16:00:00Z,26.4966,-82.1479,2.019,-9999.0,1111122 
SCCF RECON,ioos:station:SCCF:12:1,2011-10-04T17:00:00Z,26.4966,-82.1479,1.912,-9999.0,1111122 
SCCF RECON,ioos:station:SCCF:12:1,2011-10-04T18:00:00Z,26.4966,-82.1479,1.825,-9999.0,1111122 
SCCF RECON,ioos:station:SCCF:12:1,2011-10-04T19:00:00Z,26.4966,-82.1479,1.772,-9999.0,1111122 
SCCF RECON,ioos:station:SCCF:12:1,2011-10-04T20:00:00Z,26.4966,-82.1479,1.799,-9999.0,1111122 
SCCF RECON,ioos:station:SCCF:12:1,2011-10-04T21:00:00Z,26.4966,-82.1479,1.909,-9999.0,1111122 
SCCF RECON,ioos:station:SCCF:12:1,2011-10-04T22:00:00Z,26.4966,-82.1479,2.02,-9999.0,1111122 
SCCF RECON,ioos:station:SCCF:12:1,2011-10-04T23:00:00Z,26.4966,-82.1479,2.111,-9999.0,1111122 
SCCF RECON,ioos:station:SCCF:12:1,2011-10-05T00:00:00Z,26.4966,-82.1479,2.19,-9999.0,1111122 
SCCF RECON,ioos:station:SCCF:12:1,2011-10-05T01:00:00Z,26.4966,-82.1479,2.26,-9999.0,1111122 
SCCF RECON,ioos:station:SCCF:12:1,2011-10-05T02:00:00Z,26.4966,-82.1479,2.32,-9999.0,1111122 
SCCF RECON,ioos:station:SCCF:12:1,2011-10-05T03:00:00Z,26.4966,-82.1479,2.353,-9999.0,1111122 
SCCF RECON,ioos:station:SCCF:12:1,2011-10-05T04:00:00Z,26.4966,-82.1479,2.341,-9999.0,1111122 
SCCF RECON,ioos:station:SCCF:12:1,2011-10-05T05:00:00Z,26.4966,-82.1479,2.298,-9999.0,1111122 
SCCF RECON,ioos:station:SCCF:12:1,2011-10-05T06:00:00Z,26.4966,-82.1479,2.25,-9999.0,1111122 
SCCF RECON,ioos:station:SCCF:12:1,2011-10-05T07:00:00Z,26.4966,-82.1479,2.227,-9999.0,1111122 
SCCF RECON,ioos:station:SCCF:12:1,2011-10-05T08:00:00Z,26.4966,-82.1479,2.238,-9999.0,1111122 
SCCF RECON,ioos:station:SCCF:12:1,2011-10-05T09:00:00Z,26.4966,-82.1479,2.289,-9999.0,1111122 
SCCF RECON,ioos:station:SCCF:12:1,2011-10-05T10:00:00Z,26.4966,-82.1479,2.347,-9999.0,1111122 
SCCF RECON,ioos:station:SCCF:12:1,2011-10-05T11:00:00Z,26.4966,-82.1479,2.415,-9999.0,1111122 
SCCF RECON,ioos:station:SCCF:12:1,2011-10-05T12:00:00Z,26.4966,-82.1479,2.46,-9999.0,1111122 
SCCF RECON,ioos:station:SCCF:12:1,2011-10-05T13:00:00Z,26.4966,-82.1479,2.448,-9999.0,1111122 
SCCF RECON,ioos:station:SCCF:12:1,2011-10-05T14:00:00Z,26.4966,-82.1479,2.38,-9999.0,1111122 
SCCF RECON,ioos:station:SCCF:12:1,2011-10-05T15:00:00Z,26.4966,-82.1479,2.283,-9999.0,1111122 
SCCF RECON,ioos:station:SCCF:12:1,2011-10-05T16:00:00Z,26.4966,-82.1479,2.159,-9999.0,1111122 
SCCF RECON,ioos:station:SCCF:12:1,2011-10-05T17:00:00Z,26.4966,-82.1479,2.047,-9999.0,1111122 
SCCF RECON,ioos:station:SCCF:12:1,2011-10-05T18:00:00Z,26.4966,-82.1479,1.943,-9999.0,1111122 
SCCF RECON,ioos:station:SCCF:12:1,2011-10-05T19:00:00Z,26.4966,-82.1479,1.86,-9999.0,1111122 
SCCF RECON,ioos:station:SCCF:12:1,2011-10-05T20:00:00Z,26.4966,-82.1479,1.799,-9999.0,1111122 
SCCF RECON,ioos:station:SCCF:12:1,2011-10-05T21:00:00Z,26.4966,-82.1479,1.83,-9999.0,1111122 
SCCF RECON,ioos:station:SCCF:12:1,2011-10-05T22:00:00Z,26.4966,-82.1479,1.947,-9999.0,1111122 
SCCF RECON,ioos:station:SCCF:12:1,2011-10-05T23:00:00Z,26.4966,-82.1479,2.043,-9999.0,1111122 
SCCF RECON,ioos:station:SCCF:12:1,2011-10-06T00:00:00Z,26.4966,-82.1479,2.127,-9999.0,1111122 
SCCF RECON,ioos:station:SCCF:12:1,2011-10-06T01:00:00Z,26.4966,-82.1479,2.192,-9999.0,1111122 
SCCF RECON,ioos:station:SCCF:12:1,2011-10-06T02:00:00Z,26.4966,-82.1479,2.24,-9999.0,1111122 
SCCF RECON,ioos:station:SCCF:12:1,2011-10-06T03:00:00Z,26.4966,-82.1479,2.26,-9999.0,1111122 
SCCF RECON,ioos:station:SCCF:12:1,2011-10-06T04:00:00Z,26.4966,-82.1479,2.26,-9999.0,1111122 
SCCF RECON,ioos:station:SCCF:12:1,2011-10-06T05:00:00Z,26.4966,-82.1479,2.22,-9999.0,1111122 
SCCF RECON,ioos:station:SCCF:12:1,2011-10-06T06:00:00Z,26.4966,-82.1479,2.15,-9999.0,1111122 
SCCF RECON,ioos:station:SCCF:12:1,2011-10-06T07:00:00Z,26.4966,-82.1479,2.09,-9999.0,1111122 
SCCF RECON,ioos:station:SCCF:12:1,2011-10-06T08:00:00Z,26.4966,-82.1479,2.086,-9999.0,1111122 
SCCF RECON,ioos:station:SCCF:12:1,2011-10-06T09:00:00Z,26.4966,-82.1479,2.139,-9999.0,1111122 
SCCF RECON,ioos:station:SCCF:12:1,2011-10-06T10:00:00Z,26.4966,-82.1479,2.219,-9999.0,1111122 
SCCF RECON,ioos:station:SCCF:12:1,2011-10-06T11:00:00Z,26.4966,-82.1479,2.331,-9999.0,1111122 
SCCF RECON,ioos:station:SCCF:12:1,2011-10-06T12:00:00Z,26.4966,-82.1479,2.423,-9999.0,1111122 
SCCF RECON,ioos:station:SCCF:12:1,2011-10-06T13:00:00Z,26.4966,-82.1479,2.479,-9999.0,1111122 
SCCF RECON,ioos:station:SCCF:12:1,2011-10-06T14:00:00Z,26.4966,-82.1479,2.477,-9999.0,1111122 
SCCF RECON,ioos:station:SCCF:12:1,2011-10-06T15:00:00Z,26.4966,-82.1479,2.419,-9999.0,1111122 
SCCF RECON,ioos:station:SCCF:12:1,2011-10-06T16:00:00Z,26.4966,-82.1479,2.34,-9999.0,1111122 
SCCF RECON,ioos:station:SCCF:12:1,2011-10-06T17:00:00Z,26.4966,-82.1479,2.232,-9999.0,1111122 
SCCF RECON,ioos:station:SCCF:12:1,2011-10-06T18:00:00Z,26.4966,-82.1479,2.122,-9999.0,1111122 
SCCF RECON,ioos:station:SCCF:12:1,2011-10-06T19:00:00Z,26.4966,-82.1479,2.02,-9999.0,1111122 
SCCF RECON,ioos:station:SCCF:12:1,2011-10-06T20:00:00Z,26.4966,-82.1479,1.934,-9999.0,1111122 
SCCF RECON,ioos:station:SCCF:12:1,2011-10-06T21:00:00Z,26.4966,-82.1479,1.893,-9999.0,1111122 
SCCF RECON,ioos:station:SCCF:12:1,2011-10-06T22:00:00Z,26.4966,-82.1479,1.935,-9999.0,1111122 
SCCF RECON,ioos:station:SCCF:12:1,2011-10-06T23:00:00Z,26.4966,-82.1479,2.042,-9999.0,1111122 
SCCF RECON,ioos:station:SCCF:12:1,2011-10-07T00:00:00Z,26.4966,-82.1479,2.156,-9999.0,1111122 
SCCF RECON,ioos:station:SCCF:12:1,2011-10-07T01:00:00Z,26.4966,-82.1479,2.236,-9999.0,1111122 
SCCF RECON,ioos:station:SCCF:12:1,2011-10-07T02:00:00Z,26.4966,-82.1479,2.282,-9999.0,1111122 
SCCF RECON,ioos:station:SCCF:12:1,2011-10-07T03:00:00Z,26.4966,-82.1479,2.313,-9999.0,1111122 
SCCF RECON,ioos:station:SCCF:12:1,2011-10-07T04:00:00Z,26.4966,-82.1479,2.321,-9999.0,1111122 
SCCF RECON,ioos:station:SCCF:12:1,2011-10-07T05:00:00Z,26.4966,-82.1479,2.279,-9999.0,1111122 
SCCF RECON,ioos:station:SCCF:12:1,2011-10-07T06:00:00Z,26.4966,-82.1479,2.203,-9999.0,1111122 
SCCF RECON,ioos:station:SCCF:12:1,2011-10-07T07:00:00Z,26.4966,-82.1479,2.11,-9999.0,1111122 
SCCF RECON,ioos:station:SCCF:12:1,2011-10-07T08:00:00Z,26.4966,-82.1479,2.04,-9999.0,1111122 
SCCF RECON,ioos:station:SCCF:12:1,2011-10-07T09:00:00Z,26.4966,-82.1479,2.037,-9999.0,1111122 
SCCF RECON,ioos:station:SCCF:12:1,2011-10-07T10:00:00Z,26.4966,-82.1479,2.119,-9999.0,1111122 
SCCF RECON,ioos:station:SCCF:12:1,2011-10-07T11:00:00Z,26.4966,-82.1479,2.212,-9999.0,1111122 
SCCF RECON,ioos:station:SCCF:12:1,2011-10-07T12:00:00Z,26.4966,-82.1479,2.312,-9999.0,1111122 
SCCF RECON,ioos:station:SCCF:12:1,2011-10-07T13:00:00Z,26.4966,-82.1479,2.408,-9999.0,1111122 
SCCF RECON,ioos:station:SCCF:12:1,2011-10-07T14:00:00Z,26.4966,-82.1479,2.474,-9999.0,1111122 
SCCF RECON,ioos:station:SCCF:12:1,2011-10-07T15:00:00Z,26.4966,-82.1479,2.47,-9999.0,1111122 
SCCF RECON,ioos:station:SCCF:12:1,2011-10-07T16:00:00Z,26.4966,-82.1479,2.414,-9999.0,1111122 
SCCF RECON,ioos:station:SCCF:12:1,2011-10-07T17:00:00Z,26.4966,-82.1479,2.325,-9999.0,1111122 
SCCF RECON,ioos:station:SCCF:12:1,2011-10-07T18:00:00Z,26.4966,-82.1479,2.228,-9999.0,1111122 
SCCF RECON,ioos:station:SCCF:12:1,2011-10-07T19:00:00Z,26.4966,-82.1479,2.12,-9999.0,1111122 
SCCF RECON,ioos:station:SCCF:12:1,2011-10-07T20:00:00Z,26.4966,-82.1479,2.038,-9999.0,1111122 
SCCF RECON,ioos:station:SCCF:12:1,2011-10-07T21:00:00Z,26.4966,-82.1479,1.978,-9999.0,1111122 
SCCF RECON,ioos:station:SCCF:12:1,2011-10-07T22:00:00Z,26.4966,-82.1479,1.976,-9999.0,1111122 
SCCF RECON,ioos:station:SCCF:12:1,2011-10-07T23:00:00Z,26.4966,-82.1479,2.074,-9999.0,1111122 
SCCF RECON,ioos:station:SCCF:12:1,2011-10-08T00:00:00Z,26.4966,-82.1479,2.151,-9999.0,1111122 
SCCF RECON,ioos:station:SCCF:12:1,2011-10-08T01:00:00Z,26.4966,-82.1479,2.222,-9999.0,1111122 
SCCF RECON,ioos:station:SCCF:12:1,2011-10-08T02:00:00Z,26.4966,-82.1479,2.282,-9999.0,1111122 
SCCF RECON,ioos:station:SCCF:12:1,2011-10-08T03:00:00Z,26.4966,-82.1479,2.353,-9999.0,1111122 
SCCF RECON,ioos:station:SCCF:12:1,2011-10-08T04:00:00Z,26.4966,-82.1479,2.341,-9999.0,1111122 
SCCF RECON,ioos:station:SCCF:12:1,2011-10-08T05:00:00Z,26.4966,-82.1479,2.311,-9999.0,1111122 
SCCF RECON,ioos:station:SCCF:12:1,2011-10-08T06:00:00Z,26.4966,-82.1479,2.246,-9999.0,1111122 
SCCF RECON,ioos:station:SCCF:12:1,2011-10-08T07:00:00Z,26.4966,-82.1479,2.143,-9999.0,1111122 
SCCF RECON,ioos:station:SCCF:12:1,2011-10-08T08:00:00Z,26.4966,-82.1479,2.036,-9999.0,1111122 
SCCF RECON,ioos:station:SCCF:12:1,2011-10-08T09:00:00Z,26.4966,-82.1479,1.981,-9999.0,1111122 
SCCF RECON,ioos:station:SCCF:12:1,2011-10-08T10:00:00Z,26.4966,-82.1479,2.005,-9999.0,1111122 
SCCF RECON,ioos:station:SCCF:12:1,2011-10-08T11:00:00Z,26.4966,-82.1479,2.092,-9999.0,1111122 
SCCF RECON,ioos:station:SCCF:12:1,2011-10-08T12:00:00Z,26.4966,-82.1479,2.214,-9999.0,1111122 
SCCF RECON,ioos:station:SCCF:12:1,2011-10-08T13:00:00Z,26.4966,-82.1479,2.293,-9999.0,1111122 
SCCF RECON,ioos:station:SCCF:12:1,2011-10-08T14:00:00Z,26.4966,-82.1479,2.346,-9999.0,1111122 
SCCF RECON,ioos:station:SCCF:12:1,2011-10-08T15:00:00Z,26.4966,-82.1479,2.41,-9999.0,1111122 
SCCF RECON,ioos:station:SCCF:12:1,2011-10-08T16:00:00Z,26.4966,-82.1479,2.431,-9999.0,1111122 
SCCF RECON,ioos:station:SCCF:12:1,2011-10-08T17:00:00Z,26.4966,-82.1479,2.403,-9999.0,1111122 
SCCF RECON,ioos:station:SCCF:12:1,2011-10-08T18:00:00Z,26.4966,-82.1479,2.317,-9999.0,1111122 
SCCF RECON,ioos:station:SCCF:12:1,2011-10-08T19:00:00Z,26.4966,-82.1479,2.196,-9999.0,1111122 
SCCF RECON,ioos:station:SCCF:12:1,2011-10-08T20:00:00Z,26.4966,-82.1479,2.127,-9999.0,1111122 
SCCF RECON,ioos:station:SCCF:12:1,2011-10-08T21:00:00Z,26.4966,-82.1479,2.026,-9999.0,1111122 
SCCF RECON,ioos:station:SCCF:12:1,2011-10-08T22:00:00Z,26.4966,-82.1479,1.968,-9999.0,1111122 
SCCF RECON,ioos:station:SCCF:12:1,2011-10-08T23:00:00Z,26.4966,-82.1479,1.926,-9999.0,1111122 
SCCF RECON,ioos:station:SCCF:12:1,2011-10-09T00:00:00Z,26.4966,-82.1479,2.03,-9999.0,1111122 
SCCF RECON,ioos:station:SCCF:12:1,2011-10-09T01:00:00Z,26.4966,-82.1479,2.142,-9999.0,1111122 
SCCF RECON,ioos:station:SCCF:12:1,2011-10-09T02:00:00Z,26.4966,-82.1479,2.259,-9999.0,1111122 
SCCF RECON,ioos:station:SCCF:12:1,2011-10-09T03:00:00Z,26.4966,-82.1479,2.311,-9999.0,1111122 
SCCF RECON,ioos:station:SCCF:12:1,2011-10-09T04:00:00Z,26.4966,-82.1479,2.341,-9999.0,1111122 
SCCF RECON,ioos:station:SCCF:12:1,2011-10-09T05:00:00Z,26.4966,-82.1479,2.308,-9999.0,1111122 
SCCF RECON,ioos:station:SCCF:12:1,2011-10-09T06:00:00Z,26.4966,-82.1479,2.257,-9999.0,1111122 
SCCF RECON,ioos:station:SCCF:12:1,2011-10-09T07:00:00Z,26.4966,-82.1479,2.188,-9999.0,1111122 
SCCF RECON,ioos:station:SCCF:12:1,2011-10-09T08:00:00Z,26.4966,-82.1479,2.114,-9999.0,1111122 
SCCF RECON,ioos:station:SCCF:12:1,2011-10-09T09:00:00Z,26.4966,-82.1479,2.013,-9999.0,1111122 
SCCF RECON,ioos:station:SCCF:12:1,2011-10-09T10:00:00Z,26.4966,-82.1479,1.939,-9999.0,1111122 
SCCF RECON,ioos:station:SCCF:12:1,2011-10-09T11:00:00Z,26.4966,-82.1479,1.918,-9999.0,1111122 
SCCF RECON,ioos:station:SCCF:12:1,2011-10-09T12:00:00Z,26.4966,-82.1479,2.0,-9999.0,1111122 
SCCF RECON,ioos:station:SCCF:12:1,2011-10-09T13:00:00Z,26.4966,-82.1479,2.162,-9999.0,1111122 
SCCF RECON,ioos:station:SCCF:12:1,2011-10-09T14:00:00Z,26.4966,-82.1479,2.322,-9999.0,1111122 
SCCF RECON,ioos:station:SCCF:12:1,2011-10-09T15:00:00Z,26.4966,-82.1479,2.428,-9999.0,1111122 
SCCF RECON,ioos:station:SCCF:12:1,2011-10-09T16:00:00Z,26.4966,-82.1479,2.48,-9999.0,1111122 
SCCF RECON,ioos:station:SCCF:12:1,2011-10-09T17:00:00Z,26.4966,-82.1479,2.452,-9999.0,1111122 
SCCF RECON,ioos:station:SCCF:12:1,2011-10-09T18:00:00Z,26.4966,-82.1479,2.37,-9999.0,1111122 
SCCF RECON,ioos:station:SCCF:12:1,2011-10-09T19:00:00Z,26.4966,-82.1479,2.27,-9999.0,1111122 
SCCF RECON,ioos:station:SCCF:12:1,2011-10-09T20:00:00Z,26.4966,-82.1479,2.2,-9999.0,1111122 
SCCF RECON,ioos:station:SCCF:12:1,2011-10-09T21:00:00Z,26.4966,-82.1479,2.167,-9999.0,1111122 
SCCF RECON,ioos:station:SCCF:12:1,2011-10-09T22:00:00Z,26.4966,-82.1479,2.1,-9999.0,1111122 
SCCF RECON,ioos:station:SCCF:12:1,2011-10-09T23:00:00Z,26.4966,-82.1479,2.047,-9999.0,1111122 
SCCF RECON,ioos:station:SCCF:12:1,2011-10-10T00:00:00Z,26.4966,-82.1479,2.08,-9999.0,1111122 
SCCF RECON,ioos:station:SCCF:12:1,2011-10-10T01:00:00Z,26.4966,-82.1479,2.198,-9999.0,1111122 
SCCF RECON,ioos:station:SCCF:12:1,2011-10-10T02:00:00Z,26.4966,-82.1479,2.306,-9999.0,1111122 
SCCF RECON,ioos:station:SCCF:12:1,2011-10-10T03:00:00Z,26.4966,-82.1479,2.39,-9999.0,1111122 
SCCF RECON,ioos:station:SCCF:12:1,2011-10-10T04:00:00Z,26.4966,-82.1479,2.44,-9999.0,1111122 
SCCF RECON,ioos:station:SCCF:12:1,2011-10-10T05:00:00Z,26.4966,-82.1479,2.45,-9999.0,1111122 
SCCF RECON,ioos:station:SCCF:12:1,2011-10-10T06:00:00Z,26.4966,-82.1479,2.44,-9999.0,1111122 
SCCF RECON,ioos:station:SCCF:12:1,2011-10-10T07:00:00Z,26.4966,-82.1479,2.34,-9999.0,1111122 
SCCF RECON,ioos:station:SCCF:12:1,2011-10-10T08:00:00Z,26.4966,-82.1479,2.21,-9999.0,1111122 
SCCF RECON,ioos:station:SCCF:12:1,2011-10-10T09:00:00Z,26.4966,-82.1479,2.091,-9999.0,1111122 
SCCF RECON,ioos:station:SCCF:12:1,2011-10-10T10:00:00Z,26.4966,-82.1479,2.01,-9999.0,1111122 
SCCF RECON,ioos:station:SCCF:12:1,2011-10-10T11:00:00Z,26.4966,-82.1479,1.96,-9999.0,1111122 
SCCF RECON,ioos:station:SCCF:12:1,2011-10-10T12:00:00Z,26.4966,-82.1479,1.99,-9999.0,1111122 
SCCF RECON,ioos:station:SCCF:12:1,2011-10-10T13:00:00Z,26.4966,-82.1479,2.13,-9999.0,1111122 
SCCF RECON,ioos:station:SCCF:12:1,2011-10-10T14:00:00Z,26.4966,-82.1479,2.3,-9999.0,1111122 
SCCF RECON,ioos:station:SCCF:12:1,2011-10-10T15:00:00Z,26.4966,-82.1479,2.409,-9999.0,1111122 
SCCF RECON,ioos:station:SCCF:12:1,2011-10-10T16:00:00Z,26.4966,-82.1479,2.472,-9999.0,1111122 
SCCF RECON,ioos:station:SCCF:12:1,2011-10-10T17:00:00Z,26.4966,-82.1479,2.49,-9999.0,1111122 
SCCF RECON,ioos:station:SCCF:12:1,2011-10-10T18:00:00Z,26.4966,-82.1479,2.476,-9999.0,1111122 
SCCF RECON,ioos:station:SCCF:12:1,2011-10-10T19:00:00Z,26.4966,-82.1479,2.42,-9999.0,1111122 
SCCF RECON,ioos:station:SCCF:12:1,2011-10-10T20:00:00Z,26.4966,-82.1479,2.339,-9999.0,1111122 
SCCF RECON,ioos:station:SCCF:12:1,2011-10-10T21:00:00Z,26.4966,-82.1479,2.24,-9999.0,1111122 
SCCF RECON,ioos:station:SCCF:12:1,2011-10-10T22:00:00Z,26.4966,-82.1479,2.15,-9999.0,1111122 
SCCF RECON,ioos:station:SCCF:12:1,2011-10-10T23:00:00Z,26.4966,-82.1479,2.09,-9999.0,1111122 
SCCF RECON,ioos:station:SCCF:12:1,2011-10-11T00:00:00Z,26.4966,-82.1479,2.112,-9999.0,1111122 
SCCF RECON,ioos:station:SCCF:12:1,2011-10-11T01:00:00Z,26.4966,-82.1479,2.225,-9999.0,1111122 
SCCF RECON,ioos:station:SCCF:12:1,2011-10-11T02:00:00Z,26.4966,-82.1479,2.37,-9999.0,1111122 
SCCF RECON,ioos:station:SCCF:12:1,2011-10-11T03:00:00Z,26.4966,-82.1479,2.48,-9999.0,1111122 
SCCF RECON,ioos:station:SCCF:12:1,2011-10-11T04:00:00Z,26.4966,-82.1479,2.531,-9999.0,1111122 
SCCF RECON,ioos:station:SCCF:12:1,2011-10-11T05:00:00Z,26.4966,-82.1479,2.54,-9999.0,1111122 
SCCF RECON,ioos:station:SCCF:12:1,2011-10-11T06:00:00Z,26.4966,-82.1479,2.48,-9999.0,1111122 
SCCF RECON,ioos:station:SCCF:12:1,2011-10-11T07:00:00Z,26.4966,-82.1479,2.39,-9999.0,1111122 
SCCF RECON,ioos:station:SCCF:12:1,2011-10-11T08:00:00Z,26.4966,-82.1479,2.29,-9999.0,1111122 
SCCF RECON,ioos:station:SCCF:12:1,2011-10-11T09:00:00Z,26.4966,-82.1479,2.18,-9999.0,1111122 
SCCF RECON,ioos:station:SCCF:12:1,2011-10-11T10:00:00Z,26.4966,-82.1479,2.072,-9999.0,1111122 
SCCF RECON,ioos:station:SCCF:12:1,2011-10-11T11:00:00Z,26.4966,-82.1479,2.0,-9999.0,1111122 